Weather reports worldwide

Advertisment
Clemson, sc, United States of America (2074331): temperature & dewpoint: 13.09.2019 13:00:00 - 19.09.2019 13:00:00 (EDT)Clemson, sc, United States of America (2074331): wind speed & gusts: 13.09.2019 13:00:00 - 19.09.2019 13:00:00 (EDT)Clemson, sc, United States of America (2074331): wind direction: 13.09.2019 13:00:00 - 19.09.2019 13:00:00 (EDT)Clemson, sc, United States of America (2074331): reduced air pressure: 13.09.2019 13:00:00 - 19.09.2019 13:00:00 (EDT)Clemson, sc, United States of America (2074331): visibility: 13.09.2019 13:00:00 - 19.09.2019 13:00:00 (EDT)Clemson, sc, United States of America (2074331): precipitation: 13.09.2019 13:00:00 - 19.09.2019 13:00:00 (EDT)
Date & Time tt [°C] td [°C] ff [km/h] ff [kn] fx [km/h] fx [kn] dd ppp [hPa] vv [km] rr [mm]
19.09.2019 13:00:00 21,7 12,2 11 6 - - - 1024,7 16 -
19.09.2019 12:00:00 21,1 11,7 5 3 - - - 1025,2 - -
19.09.2019 11:00:00 20,0 12,2 15 8 - - ESE 1025,1 16 -
19.09.2019 10:00:00 19,4 12,8 13 7 - - ESE 1025,0 16 -
19.09.2019 09:00:00 19,4 12,2 9 5 - - E 1024,4 16 -
19.09.2019 08:00:00 19,4 12,8 13 7 - - E 1024,0 16 -
19.09.2019 07:00:00 20,0 13,3 11 6 - - E 1023,2 16 -
19.09.2019 06:00:00 20,6 14,4 8 4 - - E 1022,3 16 -
19.09.2019 05:00:00 20,6 15,0 8 4 - - - 1022,0 16 -
19.09.2019 04:00:00 21,1 16,1 15 8 - - E 1021,5 16 -
19.09.2019 03:00:00 21,1 16,1 9 5 - - NE 1021,5 16 -
19.09.2019 02:00:00 21,1 16,1 8 4 - - - 1021,2 16 -
19.09.2019 01:00:00 21,7 16,7 13 7 - - ENE 1021,1 16 -
19.09.2019 00:00:00 21,7 16,7 15 8 - - ENE 1021,3 16 -
18.09.2019 23:00:00 21,7 16,7 8 4 - - NNE 1021,0 16 -
18.09.2019 22:00:00 21,7 16,1 9 5 - - NE 1020,5 16 -
18.09.2019 21:00:00 22,2 15,6 11 6 - - ENE 1019,9 16 -
18.09.2019 20:00:00 22,8 16,1 9 5 - - NE 1019,5 16 -
18.09.2019 19:00:00 23,3 16,1 8 4 - - ENE 1019,3 16 -
18.09.2019 18:00:00 23,9 15,6 11 6 - - E 1019,2 16 -
18.09.2019 17:00:00 24,4 15,0 9 5 - - - 1019,3 16 -
18.09.2019 16:00:00 23,3 13,9 11 6 - - ESE 1020,1 16 -
18.09.2019 15:00:00 23,3 15,6 11 6 - - - 1020,1 16 -
18.09.2019 14:00:00 22,8 17,8 9 5 - - E 1020,2 16 -
18.09.2019 13:00:00 22,8 17,2 11 6 - - E 1019,9 16 -
18.09.2019 12:00:00 23,3 17,2 13 7 - - E 1019,8 16 -
18.09.2019 11:00:00 22,8 18,3 11 6 - - - 1019,8 16 -
18.09.2019 10:00:00 22,8 18,3 11 6 - - E 1019,2 16 -
18.09.2019 09:00:00 22,8 18,9 13 7 - - ENE 1019,0 16 -
18.09.2019 08:00:00 22,8 18,9 13 7 - - E 1018,3 16 -
18.09.2019 07:00:00 22,8 18,9 11 6 - - E 1017,8 16 -
18.09.2019 06:00:00 23,3 18,9 11 6 - - ENE 1017,0 16 -
18.09.2019 05:00:00 24,4 19,4 18 10 - - ENE 1016,5 16 -
18.09.2019 04:00:00 24,4 20,0 11 6 - - ENE 1016,0 16 -
18.09.2019 03:00:00 25,0 20,0 15 8 - - ENE 1015,8 16 -
18.09.2019 02:00:00 25,6 19,4 13 7 - - ENE 1015,4 16 -
18.09.2019 01:00:00 25,6 20,6 13 7 - - NE 1015,1 16 -
18.09.2019 00:00:00 26,1 21,1 11 6 - - NE 1014,7 16 -
17.09.2019 23:00:00 26,1 20,6 8 4 - - NNE 1014,6 16 -
17.09.2019 22:00:00 26,7 20,6 5 3 - - NE 1014,2 16 -
17.09.2019 21:00:00 27,8 21,1 0 0 - - N 1013,9 16 -
17.09.2019 20:00:00 29,4 20,6 0 0 - - N 1013,3 16 -
17.09.2019 19:00:00 31,1 19,4 0 0 - - N 1012,9 16 -
17.09.2019 18:00:00 33,3 19,4 0 0 - - N 1012,8 16 -
17.09.2019 17:00:00 32,8 18,3 0 0 - - N 1012,9 16 -
17.09.2019 16:00:00 33,3 18,3 9 5 - - NNE 1013,1 16 -
17.09.2019 15:00:00 33,9 19,4 0 0 - - N 1013,6 16 -
17.09.2019 14:00:00 33,3 21,1 8 4 - - - 1014,5 16 -
17.09.2019 13:00:00 32,8 20,0 5 3 - - - 1015,1 16 -
17.09.2019 12:00:00 31,1 20,6 0 0 - - N 1015,6 16 -
17.09.2019 11:00:00 29,4 20,6 0 0 - - N 1015,8 16 -
17.09.2019 10:00:00 26,1 20,0 0 0 - - N 1015,7 16 -
17.09.2019 09:00:00 23,3 19,4 0 0 - - N 1015,3 16 -
17.09.2019 08:00:00 22,2 18,3 8 4 - - NW 1015,3 16 -
17.09.2019 07:00:00 22,2 17,8 8 4 - - NNW 1014,8 16 -
17.09.2019 06:00:00 21,7 18,3 9 5 - - NNW 1014,4 16 -
17.09.2019 05:00:00 22,8 18,9 5 3 - - NNW 1014,2 16 -
17.09.2019 04:00:00 22,2 18,9 8 4 - - NNW 1014,4 16 -
17.09.2019 03:00:00 22,8 19,4 5 3 - - NNW 1014,8 16 -
17.09.2019 02:00:00 22,8 19,4 9 5 - - NNW 1015,1 16 -
17.09.2019 01:00:00 23,3 20,6 5 3 - - N 1015,4 16 -
17.09.2019 00:00:00 23,3 21,1 0 0 - - N 1015,6 16 -
16.09.2019 23:00:00 25,6 21,1 8 4 - - NNW 1015,5 16 -
16.09.2019 22:00:00 26,1 17,2 8 4 - - NW 1015,5 16 -
16.09.2019 21:00:00 27,2 17,8 0 0 - - N 1015,2 16 -
16.09.2019 20:00:00 28,3 16,7 0 0 - - N 1014,9 16 -
16.09.2019 19:00:00 31,7 16,7 0 0 - - N 1014,8 16 -
16.09.2019 18:00:00 33,3 16,1 5 3 - - NNW 1014,8 16 -
16.09.2019 17:00:00 33,9 15,6 9 5 - - NNE 1014,9 16 -
16.09.2019 16:00:00 33,3 17,8 8 4 - - - 1015,5 16 -
16.09.2019 15:00:00 32,2 17,2 0 0 - - N 1016,4 16 -
16.09.2019 14:00:00 31,7 18,3 5 3 - - - 1017,2 16 -
16.09.2019 13:00:00 30,0 19,4 5 3 - - - 1018,1 16 -
16.09.2019 12:00:00 29,4 20,0 8 4 - - NW 1018,7 16 -
16.09.2019 11:00:00 27,2 20,6 0 0 - - N 1019,7 16 -
16.09.2019 10:00:00 25,0 20,0 8 4 - - NNE 1019,7 16 -
16.09.2019 09:00:00 23,3 20,6 5 3 - - NNE 1019,6 16 -
16.09.2019 08:00:00 21,1 20,6 5 3 - - N 1019,4 10 -
16.09.2019 07:00:00 21,1 21,1 8 4 - - N 1018,6 11 -
16.09.2019 06:00:00 21,7 21,1 8 4 - - N 1018,4 16 -
16.09.2019 05:00:00 21,1 21,1 0 0 - - N 1018,2 4,8 -
16.09.2019 04:00:00 21,7 21,1 0 0 - - N 1018,2 13 -
16.09.2019 03:00:00 22,2 21,7 0 0 - - N 1018,4 11 -
16.09.2019 02:00:00 22,8 22,2 5 3 - - N 1018,7 15 -
16.09.2019 01:00:00 23,3 22,2 5 3 - - N 1018,9 13 -
16.09.2019 00:00:00 23,9 23,3 5 3 - - NNW 1018,8 13 -
15.09.2019 23:00:00 25,0 23,3 8 4 - - NNW 1018,7 16 -
15.09.2019 22:00:00 24,4 21,1 5 3 - - NNW 1018,4 16 -
15.09.2019 21:00:00 26,7 20,6 0 0 - - N 1017,8 16 -
15.09.2019 20:00:00 26,7 20,6 0 0 - - N 1017,6 16 -
15.09.2019 19:00:00 28,9 21,1 0 0 - - N 1017,5 16 -
15.09.2019 18:00:00 30,6 20,0 5 3 - - - 1017,4 16 -
15.09.2019 17:00:00 31,1 19,4 8 4 - - - 1017,7 16 -
15.09.2019 16:00:00 30,0 20,6 0 0 - - N 1018,3 16 -
15.09.2019 15:00:00 29,4 21,1 11 6 - - - 1019,3 16 -
15.09.2019 14:00:00 28,9 21,7 0 0 - - N 1020,2 16 -
15.09.2019 13:00:00 28,3 21,7 8 4 - - - 1020,9 16 -
15.09.2019 12:00:00 27,8 21,7 8 4 - - - 1021,2 16 -
15.09.2019 11:00:00 26,7 21,1 0 0 - - N 1021,6 16 -
15.09.2019 10:00:00 25,0 21,7 0 0 - - N 1021,7 16 -
15.09.2019 09:00:00 22,8 21,7 5 3 - - N 1021,7 15 -
15.09.2019 08:00:00 21,7 21,1 0 0 - - N 1021,3 8 -
15.09.2019 07:00:00 20,6 20,6 0 0 - - N 1021,0 10 -
15.09.2019 06:00:00 20,6 20,6 0 0 - - N 1020,5 13 -
15.09.2019 05:00:00 21,1 20,6 5 3 - - N 1020,4 15 -
15.09.2019 04:00:00 21,7 21,1 0 0 - - N 1020,7 11 -
15.09.2019 03:00:00 21,1 21,1 9 5 - - N 1021,3 13 -
15.09.2019 02:00:00 21,7 21,1 5 3 - - NNW 1021,6 16 -
15.09.2019 01:00:00 21,7 21,1 5 3 - - N 1021,9 16 -
15.09.2019 00:00:00 21,7 21,1 5 3 - - NNW 1022,1 16 -
14.09.2019 23:00:00 21,7 21,1 5 3 - - NNW 1022,0 16 -
14.09.2019 22:00:00 21,7 20,6 0 0 - - N 1022,3 16 -
14.09.2019 21:00:00 21,7 20,6 11 6 - - NNE 1022,0 16 -
14.09.2019 20:00:00 21,7 20,6 11 6 - - N 1022,1 16 0,0
14.09.2019 19:00:00 23,3 20,0 11 6 - - N 1022,3 16 -
14.09.2019 18:00:00 29,4 21,1 11 6 - - N 1021,8 16 -
14.09.2019 17:00:00 30,0 21,1 0 0 - - N 1021,4 16 -
14.09.2019 16:00:00 29,4 21,1 11 6 - - ENE 1021,6 16 -
14.09.2019 15:00:00 28,3 21,1 0 0 - - N 1022,6 16 -
14.09.2019 14:00:00 28,3 21,7 0 0 - - N 1023,5 16 -
14.09.2019 13:00:00 26,7 21,7 8 4 - - ENE 1024,4 16 -
14.09.2019 12:00:00 25,6 22,2 5 3 - - E 1024,8 16 -
14.09.2019 11:00:00 24,4 22,2 5 3 - - ENE 1025,1 15 -
14.09.2019 10:00:00 23,3 22,2 8 4 - - E 1025,3 11 -
14.09.2019 09:00:00 22,8 22,2 8 4 - - E 1024,7 8 -
14.09.2019 08:00:00 22,8 21,7 8 4 - - E 1024,1 10 -
14.09.2019 07:00:00 22,8 21,7 5 3 - - E 1023,7 10 -
14.09.2019 06:00:00 22,2 21,7 0 0 - - N 1023,4 10 -
14.09.2019 05:00:00 22,2 21,7 11 6 - - ENE 1022,8 11 -
14.09.2019 04:00:00 22,2 21,7 5 3 - - NE 1022,9 11 -
14.09.2019 03:00:00 21,7 21,7 8 4 - - NNW 1023,3 10 -
14.09.2019 02:00:00 22,2 21,7 5 3 - - N 1023,8 11 -
14.09.2019 01:00:00 22,2 21,7 5 3 - - NNE 1024,1 13 -
14.09.2019 00:00:00 22,8 22,2 11 6 - - NE 1024,5 13 -
13.09.2019 23:00:00 22,8 22,2 8 4 - - NE 1024,4 13 0,0
13.09.2019 22:00:00 22,8 21,7 0 0 - - N 1024,5 13 0,0
13.09.2019 21:00:00 22,2 21,7 9 5 - - N 1024,0 11 5,6
13.09.2019 20:00:00 22,8 20,6 9 5 - - NNE 1023,2 16 0,0
13.09.2019 19:00:00 23,9 22,2 15 8 - - ENE 1021,8 13 0,8
13.09.2019 18:00:00 23,9 21,1 9 5 48 26 SW 1020,7 13 0,3
13.09.2019 17:00:00 33,9 18,9 5 3 - - - 1019,1 16 -
13.09.2019 16:00:00 33,9 20,0 8 4 - - SSE 1019,2 16 -
13.09.2019 15:00:00 33,9 20,0 5 3 - - - 1020,1 16 -
13.09.2019 14:00:00 33,3 20,6 9 5 - - SE 1021,1 16 -
13.09.2019 13:00:00 33,3 21,1 11 6 - - ESE 1021,8 16 -

tt = temperature
td = dewpoint
ff = wind speed
fx = gusts
dd = wind direction
ppp = reduced air pressure
vv = visibility
rr = precipitation

Next stations